Time,TemperatureF,DewpointF,PressureIn,WindDirection,WindDirectionDegrees,WindSpeedMPH,WindSpeedGustMPH,Humidity,HourlyPrecipIn,Conditions,Clouds,dailyrainin,SoftwareType,DateUTC
2013-06-12 00:00:00,56.9,53.4,29.95,SSE,156,0.0,22.0,88,0.00,,,0.00,Wunderground v.1.15,2013-06-12 03:00:00,
2013-06-12 00:10:00,56.5,53.3,29.94,SSE,156,0.0,22.0,89,0.00,,,0.00,Wunderground v.1.15,2013-06-12 03:10:00,
2013-06-12 00:20:00,56.3,53.1,29.94,SSE,156,0.0,22.0,89,0.00,,,0.00,Wunderground v.1.15,2013-06-12 03:20:00,
2013-06-12 00:30:00,56.0,53.1,29.94,SSE,156,0.0,22.0,90,0.00,,,0.00,Wunderground v.1.15,2013-06-12 03:30:00,
2013-06-12 00:40:00,55.9,53.0,29.94,SSE,162,1.0,22.0,90,0.00,,,0.00,Wunderground v.1.15,2013-06-12 03:40:00,
2013-06-12 00:50:00,56.1,52.9,29.93,SE,142,0.0,22.0,89,0.00,,,0.00,Wunderground v.1.15,2013-06-12 03:50:00,
2013-06-12 01:00:00,56.2,52.7,29.92,SE,124,0.0,22.0,88,0.00,,,0.00,Wunderground v.1.15,2013-06-12 04:00:00,
2013-06-12 01:10:00,56.6,52.5,29.92,ESE,116,1.0,22.0,86,0.00,,,0.00,Wunderground v.1.15,2013-06-12 04:10:00,
2013-06-12 01:20:00,56.8,52.3,29.92,SE,124,1.0,22.0,85,0.00,,,0.00,Wunderground v.1.15,2013-06-12 04:20:00,
2013-06-12 01:30:00,56.7,52.2,29.93,SE,133,0.0,22.0,85,0.00,,,0.00,Wunderground v.1.15,2013-06-12 04:30:00,
2013-06-12 01:40:00,56.5,52.4,29.93,SE,133,0.0,22.0,86,0.00,,,0.00,Wunderground v.1.15,2013-06-12 04:40:00,
2013-06-12 01:50:00,56.2,52.4,29.93,SE,132,0.0,22.0,87,0.00,,,0.00,Wunderground v.1.15,2013-06-12 04:50:00,
2013-06-12 02:00:00,55.6,52.1,29.93,SE,133,0.0,22.0,88,0.00,,,0.00,Wunderground v.1.15,2013-06-12 05:00:00,
2013-06-12 02:10:00,56.0,52.5,29.92,ENE,78,1.0,22.0,88,0.00,,,0.00,Wunderground v.1.15,2013-06-12 05:10:00,
2013-06-12 02:20:00,56.3,52.5,29.91,East,84,2.0,22.0,87,0.00,,,0.00,Wunderground v.1.15,2013-06-12 05:20:00,
2013-06-12 02:30:00,56.4,52.3,29.91,East,95,2.0,2.0,86,0.00,,,0.00,Wunderground v.1.15,2013-06-12 05:30:00,
2013-06-12 02:40:00,56.4,52.3,29.91,East,96,2.0,22.0,86,0.00,,,0.00,Wunderground v.1.15,2013-06-12 05:40:00,
2013-06-12 02:50:00,56.3,52.5,29.90,ESE,103,2.0,22.0,87,0.00,,,0.00,Wunderground v.1.15,2013-06-12 05:50:00,
2013-06-12 03:00:00,56.4,52.6,29.90,ESE,110,2.0,22.0,87,0.00,,,0.00,Wunderground v.1.15,2013-06-12 06:00:00,
2013-06-12 03:10:00,56.5,52.4,29.90,ENE,70,2.0,22.0,86,0.00,,,0.00,Wunderground v.1.15,2013-06-12 06:10:00,
2013-06-12 03:20:00,56.5,52.7,29.90,East,79,1.0,1.0,87,0.00,,,0.00,Wunderground v.1.15,2013-06-12 06:20:00,
2013-06-12 03:30:00,56.4,52.6,29.90,East,79,0.0,22.0,87,0.00,,,0.00,Wunderground v.1.15,2013-06-12 06:30:00,
2013-06-12 03:40:00,56.3,52.8,29.90,ENE,62,0.0,22.0,88,0.00,,,0.00,Wunderground v.1.15,2013-06-12 06:40:00,
2013-06-12 03:50:00,56.1,52.9,29.90,East,101,1.0,22.0,89,0.00,,,0.00,Wunderground v.1.15,2013-06-12 06:50:00,
2013-06-12 04:00:00,56.1,52.6,29.89,ENE,68,0.0,22.0,88,0.00,,,0.00,Wunderground v.1.15,2013-06-12 07:00:00,
2013-06-12 04:10:00,56.1,52.9,29.89,ESE,110,1.0,22.0,89,0.00,,,0.00,Wunderground v.1.15,2013-06-12 07:10:00,
2013-06-12 04:20:00,55.9,52.4,29.89,ENE,70,1.0,22.0,88,0.00,,,0.00,Wunderground v.1.15,2013-06-12 07:20:00,
2013-06-12 04:30:00,55.8,52.3,29.89,ESE,113,1.0,1.0,88,0.00,,,0.00,Wunderground v.1.15,2013-06-12 07:30:00,
2013-06-12 04:40:00,55.7,52.5,29.89,NW,321,0.0,22.0,89,0.00,,,0.00,Wunderground v.1.15,2013-06-12 07:40:00,
2013-06-12 04:50:00,55.5,52.6,29.89,SE,139,0.0,22.0,90,0.00,,,0.00,Wunderground v.1.15,2013-06-12 07:50:00,
2013-06-12 05:00:00,55.5,52.6,29.89,East,94,0.0,22.0,90,0.00,,,0.00,Wunderground v.1.15,2013-06-12 08:00:00,
2013-06-12 05:10:00,55.5,52.6,29.89,SW,233,1.0,1.0,90,0.00,,,0.00,Wunderground v.1.15,2013-06-12 08:10:00,
2013-06-12 05:20:00,55.5,52.9,29.89,ENE,63,0.0,22.0,91,0.00,,,0.00,Wunderground v.1.15,2013-06-12 08:20:00,
2013-06-12 05:30:00,55.3,52.7,29.89,East,84,0.0,22.0,91,0.00,,,0.00,Wunderground v.1.15,2013-06-12 08:30:00,
2013-06-12 05:40:00,55.3,53.0,29.88,ESE,111,0.0,22.0,92,0.00,,,0.00,Wunderground v.1.15,2013-06-12 08:40:00,
2013-06-12 05:50:00,55.3,52.7,29.88,ENE,61,1.0,22.0,91,0.00,,,0.00,Wunderground v.1.15,2013-06-12 08:50:00,
2013-06-12 06:00:00,55.1,52.5,29.88,East,95,2.0,2.0,91,0.00,,,0.00,Wunderground v.1.15,2013-06-12 09:00:00,
2013-06-12 06:10:00,55.0,52.7,29.88,East,98,1.0,1.0,92,0.00,,,0.00,Wunderground v.1.15,2013-06-12 09:10:00,
2013-06-12 06:20:00,54.9,52.6,29.88,East,82,0.0,22.0,92,0.00,,,0.01,Wunderground v.1.15,2013-06-12 09:20:00,
2013-06-12 06:30:00,54.8,52.8,29.88,ENE,68,1.0,1.0,93,0.00,,,0.01,Wunderground v.1.15,2013-06-12 09:30:00,
2013-06-12 06:40:00,54.7,52.7,29.88,ESE,115,1.0,22.0,93,0.00,,,0.02,Wunderground v.1.15,2013-06-12 09:40:00,
2013-06-12 06:50:00,54.7,52.7,29.88,ENE,77,2.0,2.0,93,0.14,,,0.03,Wunderground v.1.15,2013-06-12 09:50:00,
2013-06-12 07:00:00,54.7,52.7,29.88,East,100,1.0,22.0,93,0.12,,,0.05,Wunderground v.1.15,2013-06-12 10:00:00,
2013-06-12 07:10:00,54.7,52.7,29.88,ENE,66,2.0,22.0,93,0.09,,,0.06,Wunderground v.1.15,2013-06-12 10:10:00,
2013-06-12 07:20:00,54.7,52.7,29.88,East,82,3.0,3.0,93,0.04,,,0.06,Wunderground v.1.15,2013-06-12 10:20:00,
2013-06-12 07:30:00,54.8,52.8,29.88,ESE,104,3.0,3.0,93,0.00,,,0.06,Wunderground v.1.15,2013-06-12 10:30:00,
2013-06-12 07:40:00,54.8,52.8,29.88,ENE,64,3.0,22.0,93,0.00,,,0.06,Wunderground v.1.15,2013-06-12 10:40:00,
2013-06-12 07:50:00,55.0,53.0,29.88,East,79,4.0,4.0,93,0.06,,,0.07,Wunderground v.1.15,2013-06-12 10:50:00,
2013-06-12 08:00:00,55.1,53.1,29.88,NE,47,3.0,22.0,93,0.07,,,0.08,Wunderground v.1.15,2013-06-12 11:00:00,
2013-06-12 08:10:00,55.3,53.3,29.87,East,98,4.0,22.0,93,0.00,,,0.08,Wunderground v.1.15,2013-06-12 11:10:00,
2013-06-12 08:20:00,55.4,53.1,29.87,ENE,73,4.0,22.0,92,0.00,,,0.08,Wunderground v.1.15,2013-06-12 11:20:00,
2013-06-12 08:30:00,55.5,53.2,29.87,ENE,64,5.0,5.0,92,0.00,,,0.08,Wunderground v.1.15,2013-06-12 11:30:00,
2013-06-12 08:40:00,55.6,53.3,29.86,ENE,66,4.0,4.0,92,0.00,,,0.08,Wunderground v.1.15,2013-06-12 11:40:00,
2013-06-12 08:50:00,55.8,53.5,29.86,NNE,32,4.0,22.0,92,0.00,,,0.08,Wunderground v.1.15,2013-06-12 11:50:00,
2013-06-12 09:00:00,56.0,53.4,29.86,ESE,121,5.0,22.0,91,0.00,,,0.08,Wunderground v.1.15,2013-06-12 12:00:00,
2013-06-12 09:10:00,56.1,53.5,29.86,ENE,71,5.0,22.0,91,0.00,,,0.08,Wunderground v.1.15,2013-06-12 12:10:00,
2013-06-12 09:20:00,56.4,53.8,29.86,East,81,5.0,22.0,91,0.00,,,0.08,Wunderground v.1.15,2013-06-12 12:20:00,
2013-06-12 09:30:00,56.7,54.1,29.86,ESE,111,5.0,5.0,91,0.00,,,0.08,Wunderground v.1.15,2013-06-12 12:30:00,
2013-06-12 09:40:00,56.9,54.0,29.86,ENE,62,5.0,22.0,90,0.00,,,0.08,Wunderground v.1.15,2013-06-12 12:40:00,
2013-06-12 09:50:00,57.2,54.3,29.86,East,84,5.0,22.0,90,0.00,,,0.08,Wunderground v.1.15,2013-06-12 12:50:00,
2013-06-12 10:00:00,57.4,54.2,29.86,ENE,77,6.0,22.0,89,0.00,,,0.08,Wunderground v.1.15,2013-06-12 13:00:00,
2013-06-12 10:10:00,58.2,55.0,29.86,East,91,5.0,5.0,89,0.00,,,0.08,Wunderground v.1.15,2013-06-12 13:10:00,
2013-06-12 10:20:00,58.5,55.0,29.86,East,97,5.0,22.0,88,0.00,,,0.08,Wunderground v.1.15,2013-06-12 13:20:00,
2013-06-12 10:30:00,58.1,53.9,29.86,ENE,78,7.0,7.0,86,0.00,,,0.08,Wunderground v.1.15,2013-06-12 13:30:00,
2013-06-12 10:40:00,58.1,53.9,29.86,ENE,75,6.0,6.0,86,0.00,,,0.08,Wunderground v.1.15,2013-06-12 13:40:00,
2013-06-12 10:50:00,58.0,54.2,29.86,East,96,5.0,5.0,87,0.00,,,0.08,Wunderground v.1.15,2013-06-12 13:50:00,
2013-06-12 11:00:00,58.1,54.6,29.86,North,5,4.0,4.0,88,0.00,,,0.08,Wunderground v.1.15,2013-06-12 14:00:00,
2013-06-12 11:10:00,57.8,53.6,29.85,East,79,5.0,22.0,86,0.00,,,0.08,Wunderground v.1.15,2013-06-12 14:10:00,
2013-06-12 11:20:00,57.9,54.1,29.85,East,84,5.0,5.0,87,0.00,,,0.08,Wunderground v.1.15,2013-06-12 14:20:00,
2013-06-12 11:30:00,58.2,54.0,29.84,SE,143,4.0,4.0,86,0.00,,,0.08,Wunderground v.1.15,2013-06-12 14:30:00,
2013-06-12 11:40:00,58.5,54.6,29.84,West,259,3.0,3.0,87,0.00,,,0.08,Wunderground v.1.15,2013-06-12 14:40:00,
2013-06-12 11:50:00,58.4,53.9,29.84,East,96,3.0,22.0,85,0.00,,,0.08,Wunderground v.1.15,2013-06-12 14:50:00,
2013-06-12 12:00:00,58.4,53.9,29.84,East,82,4.0,4.0,85,0.00,,,0.08,Wunderground v.1.15,2013-06-12 15:00:00,
2013-06-12 12:10:00,58.6,53.8,29.84,East,84,4.0,22.0,84,0.00,,,0.08,Wunderground v.1.15,2013-06-12 15:10:00,
2013-06-12 12:20:00,58.7,54.2,29.84,ENE,73,4.0,22.0,85,0.00,,,0.08,Wunderground v.1.15,2013-06-12 15:20:00,
2013-06-12 12:30:00,58.5,54.3,29.84,East,79,4.0,22.0,86,0.00,,,0.08,Wunderground v.1.15,2013-06-12 15:30:00,
2013-06-12 12:40:00,58.4,54.2,29.84,WNW,288,4.0,4.0,86,0.00,,,0.08,Wunderground v.1.15,2013-06-12 15:40:00,
2013-06-12 12:50:00,58.3,54.1,29.83,NNE,23,4.0,22.0,86,0.00,,,0.08,Wunderground v.1.15,2013-06-12 15:50:00,
2013-06-12 13:00:00,58.4,54.5,29.83,ESE,118,2.0,22.0,87,0.00,,,0.08,Wunderground v.1.15,2013-06-12 16:00:00,
2013-06-12 13:10:00,58.2,54.0,29.83,ENE,65,3.0,22.0,86,0.00,,,0.08,Wunderground v.1.15,2013-06-12 16:10:00,
2013-06-12 13:20:00,58.3,54.1,29.83,East,95,3.0,3.0,86,0.00,,,0.08,Wunderground v.1.15,2013-06-12 16:20:00,
2013-06-12 13:30:00,58.7,55.2,29.84,WNW,286,1.0,1.0,88,0.00,,,0.08,Wunderground v.1.15,2013-06-12 16:30:00,
2013-06-12 13:40:00,58.7,55.5,29.84,West,260,1.0,22.0,89,0.00,,,0.08,Wunderground v.1.15,2013-06-12 16:40:00,
2013-06-12 13:50:00,58.5,55.6,29.84,West,274,1.0,1.0,90,0.00,,,0.08,Wunderground v.1.15,2013-06-12 16:50:00,
2013-06-12 14:00:00,58.1,55.2,29.84,NW,316,1.0,22.0,90,0.00,,,0.08,Wunderground v.1.15,2013-06-12 17:00:00,
2013-06-12 14:10:00,57.7,55.1,29.84,WNW,290,1.0,22.0,91,0.00,,,0.08,Wunderground v.1.15,2013-06-12 17:10:00,
2013-06-12 14:20:00,57.6,55.0,29.84,NW,322,1.0,22.0,91,0.00,,,0.08,Wunderground v.1.15,2013-06-12 17:20:00,
2013-06-12 14:30:00,57.2,54.6,29.83,WNW,295,1.0,22.0,91,0.00,,,0.08,Wunderground v.1.15,2013-06-12 17:30:00,
2013-06-12 14:40:00,56.4,53.8,29.83,NW,319,2.0,22.0,91,0.00,,,0.08,Wunderground v.1.15,2013-06-12 17:40:00,
2013-06-12 14:50:00,56.0,53.4,29.83,West,268,1.0,22.0,91,0.00,,,0.08,Wunderground v.1.15,2013-06-12 17:50:00,
2013-06-12 15:00:00,55.3,53.0,29.84,SSW,200,1.0,22.0,92,0.00,,,0.08,Wunderground v.1.15,2013-06-12 18:00:00,
2013-06-12 15:10:00,54.8,52.5,29.84,West,271,1.0,22.0,92,0.00,,,0.08,Wunderground v.1.15,2013-06-12 18:10:00,
2013-06-12 15:20:00,54.3,52.0,29.83,West,271,1.0,22.0,92,0.00,,,0.08,Wunderground v.1.15,2013-06-12 18:20:00,
2013-06-12 15:30:00,54.2,52.2,29.83,SW,228,1.0,22.0,93,0.00,,,0.08,Wunderground v.1.15,2013-06-12 18:30:00,
2013-06-12 15:40:00,54.2,52.5,29.83,West,273,1.0,22.0,94,0.00,,,0.09,Wunderground v.1.15,2013-06-12 18:40:00,
2013-06-12 15:50:00,54.1,52.4,29.83,West,280,1.0,1.0,94,0.00,,,0.09,Wunderground v.1.15,2013-06-12 18:50:00,
2013-06-12 16:00:00,54.2,52.5,29.83,West,262,1.0,22.0,94,0.00,,,0.09,Wunderground v.1.15,2013-06-12 19:00:00,
2013-06-12 16:10:00,54.1,52.4,29.83,West,280,1.0,22.0,94,0.00,,,0.09,Wunderground v.1.15,2013-06-12 19:10:00,
2013-06-12 16:20:00,53.7,52.0,29.83,West,271,1.0,22.0,94,0.00,,,0.09,Wunderground v.1.15,2013-06-12 19:20:00,
2013-06-12 16:30:00,53.5,52.1,29.83,NW,308,1.0,22.0,95,0.00,,,0.09,Wunderground v.1.15,2013-06-12 19:30:00,
2013-06-12 16:40:00,53.4,52.0,29.83,WNW,302,1.0,22.0,95,0.00,,,0.09,Wunderground v.1.15,2013-06-12 19:40:00,
2013-06-12 16:50:00,53.2,51.8,29.83,WNW,287,1.0,22.0,95,0.00,,,0.09,Wunderground v.1.15,2013-06-12 19:50:00,
2013-06-12 17:00:00,53.1,51.7,29.83,WNW,287,1.0,22.0,95,0.00,,,0.09,Wunderground v.1.15,2013-06-12 20:00:00,
2013-06-12 17:10:00,53.2,51.8,29.83,West,267,1.0,22.0,95,0.00,,,0.09,Wunderground v.1.15,2013-06-12 20:10:00,
2013-06-12 17:20:00,53.3,51.9,29.83,WNW,293,1.0,1.0,95,0.00,,,0.09,Wunderground v.1.15,2013-06-12 20:20:00,
2013-06-12 17:30:00,53.4,52.0,29.83,West,274,1.0,22.0,95,0.00,,,0.09,Wunderground v.1.15,2013-06-12 20:30:00,
2013-06-12 17:40:00,53.5,52.1,29.83,WSW,256,1.0,22.0,95,0.00,,,0.09,Wunderground v.1.15,2013-06-12 20:40:00,
2013-06-12 17:50:00,53.3,51.9,29.83,WNW,284,1.0,22.0,95,0.00,,,0.09,Wunderground v.1.15,2013-06-12 20:50:00,
2013-06-12 18:00:00,53.2,51.8,29.83,WNW,300,1.0,22.0,95,0.00,,,0.09,Wunderground v.1.15,2013-06-12 21:00:00,
2013-06-12 18:10:00,53.2,51.5,29.83,NW,323,2.0,2.0,94,0.00,,,0.09,Wunderground v.1.15,2013-06-12 21:10:00,
2013-06-12 18:20:00,52.9,51.5,29.83,WNW,300,2.0,2.0,95,0.00,,,0.09,Wunderground v.1.15,2013-06-12 21:20:00,
2013-06-12 18:30:00,52.8,51.1,29.83,NW,304,2.0,2.0,94,0.00,,,0.09,Wunderground v.1.15,2013-06-12 21:30:00,
2013-06-12 18:40:00,52.7,51.0,29.83,WSW,257,1.0,22.0,94,0.00,,,0.09,Wunderground v.1.15,2013-06-12 21:40:00,
2013-06-12 18:50:00,52.7,51.3,29.83,WSW,250,1.0,22.0,95,0.00,,,0.10,Wunderground v.1.15,2013-06-12 21:50:00,
2013-06-12 19:00:00,52.6,51.2,29.83,West,280,1.0,22.0,95,0.10,,,0.11,Wunderground v.1.15,2013-06-12 22:00:00,
2013-06-12 19:10:00,52.5,51.1,29.83,WNW,297,1.0,1.0,95,0.10,,,0.13,Wunderground v.1.15,2013-06-12 22:10:00,
2013-06-12 19:20:00,52.5,51.4,29.83,West,269,1.0,22.0,96,0.05,,,0.13,Wunderground v.1.15,2013-06-12 22:20:00,
2013-06-12 19:30:00,52.7,51.6,29.83,WSW,239,0.0,22.0,96,0.05,,,0.13,Wunderground v.1.15,2013-06-12 22:30:00,
2013-06-12 19:40:00,52.9,51.8,29.83,NW,304,0.0,22.0,96,0.00,,,0.13,Wunderground v.1.15,2013-06-12 22:40:00,
2013-06-12 19:50:00,53.0,51.9,29.83,ENE,66,0.0,22.0,96,0.00,,,0.13,Wunderground v.1.15,2013-06-12 22:50:00,
2013-06-12 20:00:00,53.2,52.1,29.83,NNW,336,0.0,22.0,96,0.00,,,0.13,Wunderground v.1.15,2013-06-12 23:00:00,
2013-06-12 20:10:00,53.2,52.1,29.84,WSW,243,0.0,22.0,96,0.00,,,0.13,Wunderground v.1.15,2013-06-12 23:10:00,
2013-06-12 20:20:00,53.2,52.1,29.84,West,280,0.0,22.0,96,0.00,,,0.13,Wunderground v.1.15,2013-06-12 23:20:00,
2013-06-12 20:30:00,53.2,52.1,29.83,WSW,257,0.0,22.0,96,0.00,,,0.13,Wunderground v.1.15,2013-06-12 23:30:00,
2013-06-12 20:40:00,53.3,52.2,29.83,ENE,61,0.0,22.0,96,0.00,,,0.13,Wunderground v.1.15,2013-06-12 23:40:00,
2013-06-12 20:50:00,53.3,52.2,29.83,ENE,71,2.0,22.0,96,0.00,,,0.13,Wunderground v.1.15,2013-06-12 23:50:00,
2013-06-12 21:00:00,53.3,51.9,29.84,East,89,2.0,2.0,95,0.00,,,0.13,Wunderground v.1.15,2013-06-13 00:00:00,
2013-06-12 21:10:00,53.3,51.9,29.83,ENE,74,0.0,22.0,95,0.00,,,0.13,Wunderground v.1.15,2013-06-13 00:10:00,
2013-06-12 21:20:00,53.3,51.9,29.84,SSW,210,0.0,22.0,95,0.00,,,0.14,Wunderground v.1.15,2013-06-13 00:20:00,
2013-06-12 21:30:00,53.3,51.9,29.84,West,267,0.0,22.0,95,0.00,,,0.14,Wunderground v.1.15,2013-06-13 00:30:00,
2013-06-12 21:40:00,53.1,51.7,29.84,SW,232,1.0,22.0,95,0.00,,,0.14,Wunderground v.1.15,2013-06-13 00:40:00,
2013-06-12 21:50:00,52.8,51.4,29.84,WSW,250,1.0,22.0,95,0.00,,,0.14,Wunderground v.1.15,2013-06-13 00:50:00,
2013-06-12 22:00:00,52.5,51.1,29.84,NW,305,1.0,22.0,95,0.00,,,0.15,Wunderground v.1.15,2013-06-13 01:00:00,
2013-06-12 22:10:00,52.2,50.8,29.84,West,274,1.0,22.0,95,0.00,,,0.15,Wunderground v.1.15,2013-06-13 01:10:00,
2013-06-12 22:20:00,52.0,50.6,29.84,WNW,282,1.0,22.0,95,0.24,,,0.17,Wunderground v.1.15,2013-06-13 01:20:00,
2013-06-12 22:30:00,51.7,50.3,29.83,West,271,2.0,2.0,95,0.07,,,0.17,Wunderground v.1.15,2013-06-13 01:30:00,
2013-06-12 22:40:00,51.4,50.3,29.83,West,266,1.0,22.0,96,0.05,,,0.18,Wunderground v.1.15,2013-06-13 01:40:00,
2013-06-12 22:50:00,51.1,50.0,29.83,North,5,1.0,22.0,96,0.04,,,0.18,Wunderground v.1.15,2013-06-13 01:50:00,
2013-06-12 23:00:00,51.1,50.0,29.83,NNE,25,1.0,22.0,96,0.00,,,0.18,Wunderground v.1.15,2013-06-13 02:00:00,
2013-06-12 23:10:00,51.0,49.9,29.83,SW,236,2.0,2.0,96,0.00,,,0.19,Wunderground v.1.15,2013-06-13 02:10:00,
2013-06-12 23:20:00,51.1,50.0,29.83,WSW,257,1.0,22.0,96,0.00,,,0.19,Wunderground v.1.15,2013-06-13 02:20:00,
2013-06-12 23:30:00,50.9,49.8,29.82,West,280,1.0,22.0,96,0.00,,,0.19,Wunderground v.1.15,2013-06-13 02:30:00,
2013-06-12 23:40:00,50.9,49.8,29.82,West,274,1.0,22.0,96,0.00,,,0.19,Wunderground v.1.15,2013-06-13 02:40:00,
2013-06-12 23:50:00,50.9,50.1,29.82,WNW,283,1.0,22.0,97,0.00,,,0.19,Wunderground v.1.15,2013-06-13 02:50:00,